Find Starlink 2417

NORAD ID: 48096 Int'l Des: 2021-027 Owner: SPXS Country: US Constellation: starlink operational
LEOCIRCULAR

当前视图

正在加载3D地球...

About Starlink 2417

Starlink 2417 (NORAD 48096) is a starlink constellation satellite (v1.0) launched Apr 7, 2021 by SPXS of US. It operates in LEO, CIRCULAR orbit with a mass of 260.00 kg.

即将过境

Passes for default location (London). Set your location on the main map for personalized predictions.

高度历史

Loading altitude history...

两行轨道根数

1 48096U 21027E 26263.86525316 .00011633 00000-0 38230-3 0 9997
2 48096 53.1610 337.2910 0000450 61.2405 298.8642 15.32015303302419
Epoch: Sep 20, 2026 • Age: 22 hours

当前状态

高度 470.9 km
远地点 / 近地点 N/A
速度 7.63 km/s
星下点 -2.93°S, 50.15°E
发射日期 Apr 7, 2021
运行时间 5.4 years
类型 internet

技术详情

分类 Payload
质量 260.00 kg
干质量 248.00 kg
长度 0.20 m
跨度 9.00 m
形状 ? Box + pan
制造商 SPXS
平台类型 Starlink
阶段状态 In Orbit
所有者/国家 SPXS/US

Most Searched